This is the latest recevied weather packets stored in our database for station/object SP2ARK-10. If no packets are shown the sender has not sent any weather packets the latest 10 day(s).
| Time | Temp. | Humidity | Pressure | Rain* | Wind** | Luminosity | Snow |
|---|---|---|---|---|---|---|---|
| 1777712614 | 18.33° C | 61% | 1029.3 hPa | - | - | - | - |
| 1777711714 | 17.78° C | 62% | 1029.4 hPa | - | - | - | - |
| 1777710812 | 17.22° C | 63% | 1029.6 hPa | - | - | - | - |
| 1777709911 | 16.67° C | 64% | 1029.6 hPa | - | - | - | - |
| 1777709011 | 16.11° C | 64% | 1029.6 hPa | - | - | - | - |
| 1777707209 | 15° C | 66% | 1029.8 hPa | - | - | - | - |
| 1777706309 | 14.44° C | 70% | 1029.9 hPa | - | - | - | - |
| 1777705408 | 13.89° C | 72% | 1029.8 hPa | - | - | - | - |
| 1777704507 | 13.33° C | 72% | 1029.9 hPa | - | - | - | - |
| 1777703607 | 13.33° C | 72% | 1030 hPa | - | - | - | - |
| 1777702706 | 12.78° C | 72% | 1030 hPa | - | - | - | - |
| 1777701805 | 12.78° C | 72% | 1029.9 hPa | - | - | - | - |
| 1777700905 | 12.22° C | 72% | 1029.9 hPa | - | - | - | - |
| 1777700005 | 12.22° C | 72% | 1030 hPa | - | - | - | - |
| 1777699105 | 12.22° C | 71% | 1029.9 hPa | - | - | - | - |
| 1777698204 | 11.67° C | 71% | 1029.8 hPa | - | - | - | - |
| 1777697303 | 11.67° C | 71% | 1030 hPa | - | - | - | - |
| 1777696402 | 11.67° C | 71% | 1029.9 hPa | - | - | - | - |
| 1777695502 | 11.67° C | 71% | 1029.9 hPa | - | - | - | - |
| 1777694601 | 11.67° C | 73% | 1029.9 hPa | - | - | - | - |
| 1777693701 | 12.22° C | 81% | 1029.8 hPa | - | - | - | - |
| 1777692800 | 11.67° C | 69% | 1030 hPa | - | - | - | - |
| 1777691899 | 11.67° C | 69% | 1029.9 hPa | - | - | - | - |
| 1777690998 | 12.22° C | 69% | 1030 hPa | - | - | - | - |
| 1777690098 | 12.22° C | 69% | 1030 hPa | - | - | - | - |
* Rain since midnight (hover to see other rain measurements)
** Current wind speed in m/s (hover to see current wind gust speed)